[[{"header":{"parameterUnit":"m.s-1","parameterCategory":1,"la1":30.2991,"la2":30.254,"lo1":-89.0895,"lo2":-89.0444,"dy":0.0017,"dx":0.0017,"nx":28,"ny":28,"refTime":"2025-03-03T03:00:00:Z","depth":0,"parameterNumber":2,"parameterNumberName":"U-component_of_WINDS"},"data":[0,0,0,0,0,0,0,0,0,0,0,0,0,0,0,0,0,0,0,0,0,0,0,0,0,0,0,0,0,0,0,0,0,0,0,0,0,0,0,0,0,0,0,0,0,0,0,0,0,0,0,0,0,0,0,0,0,0,-4.6588,-4.6592,0,-4.6963,-4.6967,-4.6971,-4.7123,-4.7122,-4.7122,-4.7121,-4.7509,-4.752,-4.7531,0,0,0,0,0,0,0,0,0,0,0,0,0,-4.601,-4.602,-4.6588,-4.6593,-4.6597,-4.6962,-4.6967,-4.6972,-4.7123,-4.7122,-4.7121,-4.712,-4.7506,-4.7519,-4.7532,0,0,0,0,0,0,0,0,0,0,0,0,0,-4.631,-4.6023,-4.6587,-4.6716,-4.6732,-4.6961,-4.6967,-4.6974,-4.7124,-4.7122,-4.7121,-4.712,-4.7501,-4.7517,-4.7534,-4.7664,0,0,-4.7585,-4.7592,0,0,0,0,0,0,0,0,-4.6293,-4.6331,-4.6693,-4.6708,-4.6726,-4.6995,-4.6906,-4.7205,-4.7124,-4.6975,-4.7121,-4.7119,-4.7339,-4.7369,-4.7443,-4.7682,-4.7699,-4.7587,-4.7597,-4.7604,-4.7609,0,0,0,0,0,0,0,-4.6272,-4.6316,-4.6736,-4.6698,-4.6718,-4.6758,-4.6799,-4.6964,-4.716,-4.6988,-4.7,-4.7042,-4.7348,-4.7426,-4.7453,-4.7704,-4.7586,-4.7601,-4.7611,-4.7618,-4.8071,-4.8073,0,0,0,0,0,0,-4.6229,-4.6298,-4.6725,-4.6748,-4.6501,-4.6769,-4.6816,-4.691,-4.7159,-4.7195,-4.7042,-4.7047,-4.7398,-4.7433,-4.7467,-4.7637,-4.7604,-4.762,-4.7629,-4.8069,-4.8072,-4.8074,0,0,0,0,0,0,-4.6216,-4.6266,-4.6709,-4.6526,-4.6586,-4.6781,-4.6885,-4.6918,-4.6996,-4.72,-4.7236,-4.7086,-4.7399,-4.7444,-4.7614,-4.7652,-4.7627,-4.7642,-4.8067,-4.807,-4.8073,-4.7975,0,0,0,0,0,0,-4.6199,-4.626,-4.631,-4.6526,-4.6595,-4.6848,-4.6888,-4.6926,-4.7024,-4.7034,-4.725,-4.7285,-4.7401,-4.7588,-4.7631,-4.7675,-4.7655,-4.8064,-4.8068,-4.8072,-4.7976,-4.7974,-4.7973,0,0,0,0,0,-4.6178,-4.6268,-4.6311,-4.6362,-4.6661,-4.6849,-4.6889,-4.7019,-4.7026,-4.7079,-4.7211,-4.7278,-4.7641,-4.7604,-4.7653,-4.7703,-4.8062,-4.8067,-4.8071,-4.7976,-4.7975,-4.7973,0,0,0,0,0,0,-4.6053,-4.6299,-4.635,-4.6512,-4.6658,-4.6874,-4.6945,-4.7013,-4.7162,-4.7165,-4.7323,-4.737,-4.7528,-4.7633,-4.7587,-4.7843,-4.7857,-4.7872,-4.7768,-4.7768,-4.7767,-4.7738,-4.7669,0,0,0,0,0,-4.6044,-4.6175,-4.6384,-4.6507,-4.6578,-4.6748,-4.6835,-4.6923,-4.7082,-4.7145,-4.7289,-4.7442,-4.7591,-4.7685,-4.7834,-4.7992,-4.8042,-4.8051,-4.8049,-4.8047,-4.8058,-4.8151,-4.8157,-4.8088,-4.8088,-4.8088,0,0,-4.6028,-4.6178,-4.6252,-4.6486,-4.661,-4.6743,-4.6799,-4.6939,-4.704,-4.7167,-4.7336,-4.7447,-4.7628,-4.7793,-4.7873,-4.7885,-4.8088,-4.8053,-4.8049,-4.8062,-4.8156,-4.8162,-4.8168,-4.8091,-4.8091,-4.809,0,0,-4.6067,-4.6193,-4.631,-4.6433,-4.6619,-4.6732,-4.6759,-4.6966,-4.7044,-4.7216,-4.7314,-4.7438,-4.7691,-4.7816,-4.7913,-4.7999,-4.8068,-4.8044,-4.8037,-4.8125,-4.8131,-4.8136,-4.8168,-4.8177,-4.8054,-4.8053,-4.8053,0,-4.6023,-4.6227,-4.6362,-4.6496,-4.6597,-4.6717,-4.6838,-4.6951,-4.7176,-4.7244,-4.7255,-4.7575,-4.7705,-4.7902,-4.7922,-4.7997,-4.8035,-4.8019,-4.8119,-4.8126,-4.8133,-4.8165,-4.8176,-4.8049,-4.805,-4.805,-4.8051,0,-4.6165,-4.6305,-4.6378,-4.659,-4.67,-4.6826,-4.6983,-4.7078,-4.7156,-4.7268,-4.7443,-4.7604,-4.7787,-4.784,-4.7919,-4.8048,-4.805,-4.8088,-4.8105,-4.8133,-4.8166,-4.8179,-4.8043,-4.8045,-4.8046,-4.8047,0,0,-4.6135,-4.6421,-4.6446,-4.6544,-4.6758,-4.687,-4.7003,-4.7181,-4.7259,-4.7411,-4.7528,-4.7739,-4.7775,-4.7885,-4.7979,-4.8057,-4.8116,-4.8086,-4.8092,-4.8086,-4.827,-4.824,-4.8252,-4.8162,-4.8165,-4.8168,-4.8255,0,-4.6203,-4.6444,-4.657,-4.6758,-4.689,-4.7006,-4.7122,-4.7267,-4.7376,-4.7505,-4.7627,-4.7774,-4.781,-4.7877,-4.7959,-4.8091,-4.8155,-4.8087,-4.8274,-4.8279,-4.8224,-4.8269,-4.8239,-4.8313,-4.8268,-4.8271,-4.8272,0,-4.6314,-4.6462,-4.6662,-4.6862,-4.6922,-4.7024,-4.7197,-4.7319,-4.7487,-4.7561,-4.7683,-4.7775,-4.7922,-4.7928,-4.8134,-4.8084,-4.8169,-4.8245,-4.8251,-4.8274,-4.8277,-4.8293,-4.8339,-4.835,-4.8294,-4.8292,-4.829,0,-4.6273,-4.6523,-4.6675,-4.6756,-4.6992,-4.7061,-4.7164,-4.733,-4.7429,-4.7581,-4.7647,-4.7815,-4.7907,-4.8036,-4.8172,-4.8164,-4.8364,-4.8382,-4.8431,-4.8427,-4.8468,-4.8463,-4.8528,-4.8521,-4.8521,-4.8521,-4.8521,0,-4.6335,-4.6453,-4.666,-4.6753,-4.689,-4.7035,-4.7167,-4.7279,-4.7426,-4.7545,-4.7656,-4.7766,-4.7939,-4.8071,-4.8179,-4.8333,-4.8374,-4.8439,-4.8466,-4.8429,-4.842,-4.8486,-4.8485,-4.8524,-4.8523,-4.8523,-4.8522,0,-4.6312,-4.6455,-4.6629,-4.6838,-4.6894,-4.6985,-4.7165,-4.7262,-4.7376,-4.7526,-4.7569,-4.775,-4.7911,-4.8059,-4.8274,-4.8347,-4.8503,-4.8537,-4.8445,-4.846,-4.8501,-4.8495,-4.8611,-4.8634,-4.8609,-4.8609,-4.8609,0,-4.6343,-4.6436,-4.6655,-4.6741,-4.6841,-4.6979,-4.708,-4.7228,-4.7329,-4.7527,-4.76,-4.7769,-4.7912,-4.8164,-4.8316,-4.8481,-4.8521,-4.855,-4.8546,-4.8506,-4.8522,-4.8515,-4.8525,-4.8548,-4.8547,-4.8547,-4.8546,0,-4.6382,-4.6448,-4.6588,-4.6753,-4.687,-4.7008,-4.715,-4.7215,-4.739,-4.7498,-4.7663,-4.7774,-4.7993,-4.8159,-4.8342,-4.845,-4.8528,-4.8546,-4.8567,-4.853,-4.8472,-4.8505,-4.844,-4.8543,-4.8543,-4.8544,-4.8544,-4.8544,-4.6388,-4.6476,-4.6644,-4.6797,-4.6918,-4.7048,-4.7149,-4.7275,-4.7415,-4.7603,-4.7682,-4.785,-4.8017,-4.827,-4.8377,-4.8512,-4.8528,-4.8557,-4.8565,-4.857,-4.8563,-4.845,-4.8546,-4.8546,-4.8546,-4.8547,-4.8547,0,-4.6434,-4.6547,-4.6686,-4.6879,-4.7,-4.7061,-4.7221,-4.7318,-4.7464,-4.7612,-4.775,-4.794,-4.8103,-4.8266,-4.8438,-4.8515,-4.8555,-4.8555,-4.8551,-4.8575,-4.8538,-4.8503,-4.852,-4.852,-4.852,-4.852,-4.852,-4.852,-4.6471,-4.6624,-4.671,-4.6925,-4.7039,-4.7202,-4.7289,-4.741,-4.7529,-4.7735,-4.787,-4.7975,-4.8131,-4.8315,-4.8467,-4.8512,-4.857,-4.856,-4.8614,-4.8577,-4.8577,-4.8578,-4.8546,-4.8571,-4.8571,-4.864,-4.8641,-4.8641]},{"header":{"parameterUnit":"m.s-1","parameterCategory":1,"la1":30.2991,"la2":30.254,"lo1":-89.0895,"lo2":-89.0444,"dy":0.0017,"dx":0.0017,"nx":28,"ny":28,"refTime":"2025-03-03T03:00:00:Z","depth":0,"parameterNumber":3,"parameterNumberName":"V-component_of_WINDS"},"data":[0,0,0,0,0,0,0,0,0,0,0,0,0,0,0,0,0,0,0,0,0,0,0,0,0,0,0,0,0,0,0,0,0,0,0,0,0,0,0,0,0,0,0,0,0,0,0,0,0,0,0,0,0,0,0,0,0,0,12.4811,12.4812,0,12.4858,12.4858,12.4859,12.4757,12.4753,12.475,12.4747,12.4789,12.4793,12.4797,0,0,0,0,0,0,0,0,0,0,0,0,0,12.4631,12.4635,12.4811,12.4812,12.4813,12.4858,12.4858,12.4859,12.4757,12.4753,12.4749,12.4746,12.4787,12.4792,12.4797,0,0,0,0,0,0,0,0,0,0,0,0,0,12.4697,12.4636,12.4811,12.4767,12.4764,12.4858,12.4859,12.4859,12.4758,12.4753,12.4748,12.4744,12.4786,12.4792,12.4798,12.4935,0,0,12.4817,12.482,0,0,0,0,0,0,0,0,12.4693,12.4703,12.4773,12.4771,12.4767,12.4797,12.481,12.4884,12.4759,12.476,12.4747,12.4741,12.4795,12.48,12.4819,12.4937,12.4938,12.4817,12.4821,12.4824,12.4826,0,0,0,0,0,0,0,12.4689,12.4701,12.4829,12.4774,12.4771,12.4744,12.4748,12.4824,12.4804,12.476,12.4752,12.476,12.4792,12.4814,12.482,12.4939,12.4817,12.4823,12.4827,12.4829,12.5175,12.518,0,0,0,0,0,0,12.469,12.4698,12.4828,12.4831,12.4717,12.4752,12.4756,12.4792,12.4803,12.48,12.4764,12.4755,12.4805,12.4812,12.4821,12.4984,12.4824,12.483,12.4833,12.517,12.5176,12.5182,0,0,0,0,0,0,12.4687,12.4703,12.4826,12.4763,12.4776,12.476,12.4801,12.4795,12.4817,12.4806,12.4802,12.479,12.4802,12.4812,12.4908,12.4984,12.4833,12.4838,12.5163,12.5172,12.5179,12.5311,0,0,0,0,0,0,12.4682,12.4702,12.4754,12.4765,12.478,12.4914,12.4806,12.48,12.4829,12.4817,12.4829,12.4827,12.4799,12.49,12.4915,12.499,12.4843,12.5156,12.5167,12.5177,12.53,12.5323,12.5342,0,0,0,0,0,12.4676,12.4787,12.4758,12.4774,12.4845,12.4919,12.4927,12.4895,12.4835,12.4887,12.4881,12.4826,12.4974,12.491,12.4926,12.5005,12.5151,12.5164,12.5176,12.529,12.5318,12.5342,0,0,0,0,0,0,12.4783,12.4788,12.4755,12.4873,12.4897,12.4901,12.4966,12.4925,12.4964,12.4952,12.4908,12.4911,12.5017,12.502,12.495,12.514,12.5052,12.5068,12.5134,12.516,12.5181,12.5178,12.4848,0,0,0,0,0,12.4821,12.4882,12.4882,12.4986,12.5,12.4982,12.5012,12.4986,12.5008,12.5017,12.5017,12.504,12.5091,12.5126,12.5172,12.53,12.5302,12.5362,12.5383,12.5401,12.5415,12.5486,12.5514,12.5222,12.5222,12.5222,0,0,12.4898,12.4909,12.4949,12.5008,12.5023,12.5087,12.499,12.5061,12.5108,12.5026,12.5119,12.5121,12.5143,12.5257,12.5307,12.5263,12.5497,12.5417,12.5431,12.5435,12.5502,12.5529,12.5554,12.5231,12.5229,12.5228,0,0,12.5072,12.5086,12.5176,12.5195,12.5222,12.5209,12.5231,12.5244,12.5243,12.5336,12.5278,12.5332,12.5421,12.5441,12.5462,12.565,12.5602,12.5667,12.5777,12.5847,12.587,12.589,12.5959,12.5984,12.5681,12.5681,12.5681,0,12.5165,12.526,12.5227,12.5304,12.5332,12.5266,12.5357,12.5376,12.5415,12.5437,12.5387,12.5501,12.551,12.563,12.5677,12.5695,12.572,12.5664,12.587,12.589,12.5908,12.5973,12.5999,12.5689,12.5688,12.5687,12.5687,0,12.5374,12.5442,12.5511,12.5555,12.5592,12.5675,12.5654,12.5695,12.5667,12.566,12.5757,12.5767,12.5817,12.5843,12.5814,12.596,12.5932,12.5877,12.5788,12.5944,12.6005,12.6029,12.57,12.5697,12.5695,12.5693,0,0,12.5613,12.5643,12.5669,12.569,12.5716,12.5767,12.5849,12.59,12.5937,12.5967,12.6035,12.6115,12.6066,12.609,12.6063,12.6125,12.6277,12.6062,12.6062,12.6103,12.644,12.6482,12.6512,12.6245,12.625,12.6254,12.6439,0,12.5788,12.5931,12.5906,12.6044,12.6108,12.6048,12.6119,12.6143,12.614,12.6193,12.6188,12.6246,12.6176,12.6191,12.6249,12.6246,12.6344,12.6232,12.6308,12.6311,12.6305,12.6543,12.6587,12.6761,12.6462,12.6466,12.6469,0,12.6009,12.6053,12.62,12.6221,12.6246,12.6311,12.6359,12.641,12.6436,12.643,12.6461,12.6424,12.6505,12.6417,12.6529,12.6454,12.6483,12.6487,12.6493,12.6499,12.64,12.6556,12.6815,12.6842,12.6506,12.6503,12.65,0,12.6172,12.6267,12.6368,12.6387,12.6414,12.6462,12.6474,12.6497,12.6531,12.6572,12.6594,12.6643,12.667,12.6708,12.6686,12.6623,12.6803,12.6712,12.68,12.6801,12.684,12.6838,12.7109,12.6859,12.6858,12.6858,12.6857,0,12.637,12.6462,12.6442,12.6504,12.6607,12.6577,12.6679,12.6684,12.6706,12.6768,12.6718,12.6777,12.6743,12.68,12.6782,12.688,12.6891,12.6889,12.6883,12.6894,12.6894,12.6912,12.69,12.6865,12.6863,12.6862,12.6861,0,12.6568,12.6558,12.6665,12.6684,12.6691,12.6766,12.6781,12.6839,12.6834,12.6913,12.693,12.6922,12.6986,12.6968,12.7036,12.7025,12.7149,12.7127,12.7141,12.7136,12.7226,12.7218,12.7518,12.7557,12.7281,12.7284,12.7286,0,12.6695,12.6766,12.6794,12.6834,12.6852,12.6915,12.6952,12.6926,12.6966,12.7005,12.7059,12.712,12.7167,12.7272,12.7271,12.7324,12.7304,12.7406,12.7311,12.7321,12.7307,12.7304,12.7312,12.7424,12.7427,12.743,12.7432,0,12.6923,12.6916,12.6971,12.7027,12.7073,12.7115,12.7151,12.7186,12.7163,12.721,12.7278,12.7315,12.7388,12.7449,12.7499,12.751,12.7469,12.7463,12.7486,12.7498,12.7504,12.7504,12.7193,12.7455,12.7453,12.7451,12.745,12.7449,12.709,12.7152,12.7183,12.7247,12.7274,12.7311,12.7368,12.7372,12.7429,12.7488,12.7469,12.7547,12.7575,12.7638,12.7656,12.7716,12.7677,12.7711,12.7719,12.7728,12.7741,12.7495,12.7725,12.7724,12.7723,12.7723,12.7722,0,12.7316,12.7335,12.7395,12.7451,12.7503,12.7462,12.7502,12.7547,12.7617,12.7648,12.7698,12.7776,12.7837,12.7843,12.79,12.7947,12.7929,12.7963,12.7959,12.7963,12.7771,12.7746,12.7976,12.7976,12.7976,12.7976,12.7976,12.7976,12.744,12.7544,12.7542,12.7658,12.7675,12.7754,12.778,12.7814,12.784,12.7931,12.7983,12.7988,12.8009,12.8068,12.8122,12.8122,12.8146,12.8187,12.818,12.8001,12.7976,12.7952,12.7928,12.8192,12.8193,12.8367,12.8369,12.837]}]]